www.pogodaiklimat.ru

Погода и климат >> Архив погоды >> Россия >> Крым >> Симферополь


АРХИВ ПОГОДЫ в Симферополе

Время (UTC), дата Ветер
(напр.,м/с)
 
Видим.   Явления Облачность Т
(С)
Тd
(С)
f
(%)
Тe
(С)
Тes
(С)
Комфортность P
(гПа)
Po
(гПа)
Тmin
(С)
Tmax
(С)
R
(мм)
S
(см)
18 20.03 Ю 3 10 км 10/3 600 м
[Sc Ac und]
+3.9 +2.3 89 0 0 по сезону 1013.4 991.1 +6.2
21 20.03 Ю 3 10 км 10/0
[Ac und]
+3.8 +1.8 87 0 0 по сезону 1013.7 991.4
00 21.03 Ю 4 10 км 10/0
[Ac und]
+4.0 +1.0 81 -0 -0 по сезону 1013.7 991.4
03 21.03 Ю 3 10 км 10/3 300 м
[St Ac und]
+3.6 +0.5 80 -0 -0 по сезону 1014.5 992.2 +3.5
06 21.03 Ю 3 10 км 10/3 240 м
[St Ac und]
+6.8 +3.8 81 +4 +5 по сезону 1015.5 993.4 +3.5
09 21.03 З 2 10 км 6/6 1380 м
[Sc]
+10.0 +0.9 53 +9 +13 тепло 1015.8 993.9
12 21.03 СЗ 3 10 км 5/4 1440 м
[Sc Ac trans]
+12.5 -1.4 38 +11 +15 тепло 1015.0 993.3
15 21.03 СЗ 4 10 км 10/0
[Ac und]
+9.2 +1.6 59 +7 +7 тепло 1016.1 994.2
18 21.03 Ю 2 10 км 10/0
[Ac und]
+6.5 +4.2 85 +4 +4 по сезону 1017.8 995.6 +13.0
21 21.03 Ю 1 10 км 3/0
[Ac trans]
+5.1 +4.2 94 +4 +4 тепло 1018.8 996.5
00 22.03 ЮВ 2 10 км в посл. час туман 3/3 200 м
[St]
+3.2 +2.2 93 0 0 по сезону 1019.5 997.0
03 22.03 В 3 10 км ясно +2.5 +0.7 88 -2 -2 по сезону 1020.5 997.9 +1.7
06 22.03 В 3 10 км ясно +6.6 +2.1 73 +4 +7 по сезону 1021.5 999.3 +1.7
09 22.03 В 4 10 км ясно +11.6 -4.1 33 +10 +18 тепло 1021.3 999.4
12 22.03 С 3 10 км ясно +13.7 -1.9 34 +13 +20 тепло 1020.3 998.6
15 22.03 З 6 10 км ясно +9.6 +3.6 66 +6 +6 по сезону 1021.2 999.2
18 22.03 Ю 1 10 км ясно +5.5 +2.7 82 +4 +4 по сезону 1022.9 1000.5 +14.5
21 22.03 Ю 2 10 км ясно +3.4 +2.4 93 0 0 по сезону 1023.3 1000.8
00 23.03 ЮВ 3 10 км ясно +2.0 +0.4 89 -2 -2 по сезону 1023.3 1000.6
03 23.03 ЮВ 3 10 км ясно +1.4 -0.5 87 -3 -3 прохладно 1023.5 1000.8 +0.8
06 23.03 В 2 10 км ясно +6.8 +2.5 74 +5 +9 тепло 1024.3 1002.0 +0.6
09 23.03 СВ 3 10 км ясно +13.9 +1.5 43 +13 +23 тепло 1024.0 1002.3
12 23.03 С 3 10 км ясно +16.1 +1.0 36 +16 +23 тепло 1023.5 1001.9
15 23.03 З 5 10 км ясно +12.4 +2.0 49 +10 +11 тепло 1024.5 1002.6
18 23.03 Ю 3 10 км ясно +5.0 0.0 70 +2 +2 по сезону 1026.6 1004.1 +16.8
21 23.03 Ю 2 10 км ясно +4.6 -1.2 66 +2 +2 по сезону 1026.5 1004.0
00 24.03 ЮВ 2 10 км ясно +3.2 -0.3 78 0 0 по сезону 1026.1 1003.5
03 24.03 В 3 10 км ясно +2.7 -0.7 78 -1 -1 по сезону 1026.2 1003.5 +2.3
06 24.03 Ю 2 10 км 5/0
[Ci fib]
+11.6 +2.9 55 +11 +14 тепло 1025.6 1003.7 +1.5
09 24.03 З 6 10 км 10/0
[Ci fib]
+14.9 +1.1 39 +13 +17 тепло 1025.0 1003.3
12 24.03 З 5 10 км 10/0
[Ci fib]
+15.4 +1.2 38 +14 +18 тепло 1023.8 1002.2
15 24.03 З 5 10 км 10/0
[Ac trans Ci fib]
+11.3 +1.0 49 +9 +9 тепло 1023.1 1001.2
18 24.03 ЮЗ 3 10 км 10/0
[Ac trans Ci fib]
+7.5 +1.1 64 +5 +5 тепло 1023.0 1000.8 +15.9
21 24.03 ЮЗ 2 10 км 8/0
[Ac trans Ci fib]
+5.7 +1.6 75 +3 +3 по сезону 1022.3 1000.0
00 25.03 ЮЗ 3 100 м туман ?/? +4.1 +4.0 99 0 0 по сезону 1021.8 999.4
03 25.03 Ю 4 10 км {туман} 10/0
[Ac und]
+4.3 +3.7 96 -0 -0 по сезону 1021.5 999.1 +1.5
06 25.03 Ю 3 10 км слабый дождь {туман} 10/6 540 м
[Frnb As op]
+6.1 +4.9 92 +3 +3 по сезону 1020.6 998.3 +1.5 2
09 25.03 С 4 2400 м в посл. час дождь 10/10 120 м
[St]
+7.1 +6.8 98 +3 +3 по сезону 1020.5 998.3
12 25.03 10 км {дождь, морось} н/о +8.8 +5.2 78 +6 +10 по сезону 1019.5 997.5
15 25.03 СВ 2 10 км 8/4 1380 м
[Sc Ci fib]
+9.4 +3.4 66 +8 +8 тепло 1017.5 995.6 3
18 25.03 З 2 10 км 4/3 600 м
[Sc Ac trans]
+5.4 +4.1 91 +3 +3 по сезону 1017.6 995.4 +10.8 0.7
21 25.03 ЮВ 3 10 км 5/0
[Ac trans]
+3.6 +2.4 92 -0 -0 по сезону 1017.1 994.7
00 26.03 Ю 2 10 км 10/0
[Ci fib]
+3.5 +1.9 89 +1 +1 по сезону 1015.8 993.4
03 26.03 ЮВ 3 10 км 10/0
[Ac und]
+3.8 +1.8 87 0 0 по сезону 1014.5 992.2
06 26.03 ЮВ 2 10 км 10/0
[Ac und]
+6.7 +3.5 80 +5 +6 по сезону 1014.0 991.9 +2.2
09 26.03 ЮЗ 4 10 км {ливн. осадки} 10/5 1000 м
[Cb calv Ac und]
+7.9 +1.5 64 +5 +6 по сезону 1013.8 991.8
12 26.03 ЮЗ 1 10 км слабый дождь {ливн. осадки} 10/5 960 м
[Frnb As op]
+6.0 +3.5 84 +5 +6 прохладно 1013.4 991.3
15 26.03 СВ 2 10 км слабый дождь 10/6 540 м
[Frnb As op]
+5.0 +3.8 92 +2 +2 прохладно 1013.8 991.6 5
18 26.03 СВ 3 10 км слабый дождь 10/4 570 м
[Frnb As op]
+4.7 +4.1 96 +1 +1 по сезону 1014.8 992.6 +8.9 7
21 26.03 С 2 4600 м слабый дождь 10/6 500 м
[Frnb As op]
+4.6 +4.2 97 +2 +2 по сезону 1015.8 993.5
00 27.03 СВ 5 10 км слабый дождь 10/8 180 м
[Frnb As op]
+3.8 +3.2 96 -1 -1 по сезону 1016.2 993.9
03 27.03 СВ 2 10 км слабый дождь 10/4 600 м
[Frnb As op]
+3.5 +3.1 97 0 0 по сезону 1017.2 994.8
06 27.03 С 3 10 км {дождь} 10/10 180 м
[St]
+3.4 +2.5 94 -1 -1 прохладно 1018.3 995.9 +3.3 3
09 27.03 10 км н/о +8.1 +0.6 59 +5 +8 по сезону 1018.1 996.0
12 27.03 З 10-13
{14}
10 км 10/5 1000 м
[Sc Ac und]
+8.1 -0.4 55 +3 +3 холодно 1016.8 994.8

 

Местоположение метеостанции Симферополь (Крым, Россия): широта 45.03 долгота 33.97 высота над уровнем моря 181 м.

В архиве по умолчанию представлена погода в Симферополе за последнюю неделю. Архивные данные за месяц целиком и за предыдущие месяцы, начиная с января 2011 года, Вы можете получить, выбрав интересующий диапазон дат из раскрывающегося списка и нажав кнопку "Ввод!".

Внимание! Время в таблицах - всемирное. Для получения местного времени необходимо прибавить поправку, которая в Симферополе равна 3 ч.

Смотрите также архив погоды в соседних городах и на ближайших метеорологических станциях:

Погода в Белогорске (Крым, Россия) (50 км)
Погода в Евпатории (Крым, Россия) (50 км)
Погода в Алуште (Крым, Россия) (52 км)
Погода в Севастополе (город Севастополь, Россия) (57 км)
Погода в Клепинино (Крым, Россия) (58 км)
Погода в Никитском саду (Крым, Россия) (61 км)
Погода в Ай-Петри (Крым, Россия) (63 км)
Погода в Ялте (Крым, Россия) (63 км)
Погода в Херсонесском Маяке (город Севастополь, Россия) (68 км)
Погода в Стрелковом (Херсонская область, Украина) (74 км)

Пояснения к столбцам:

Ветер - указаны скорость ветра в м/с - средняя за 10 мин, порывы в срок и между сроками (в фигурных скобках) и направление, откуда дует ветер: С - северный, СВ - северо-восточный, В - восточный, ЮВ - юго-восточный, Ю - южный, ЮЗ - юго-западный, З - западный, СЗ - северо-западный.
Видимость - горизонтальная дальность видимости в метрах или километрах. При видимости от 1 до 10 км при отсутствии осадков обычно наблюдается дымка, при ухудшении видимости до 1 км и менее - туман. В сухую погоду видимость может ухудшаться дымом, пылью или мглою.
Явления - указаны атмосферные явления, наблюдавшиеся в срок или в последний час перед сроком; фигурными скобками обозначены явления, наблюдавшиеся между сроками (за 1-3 часа до срока); квадратными скобками обозначены град или гололедные отложения с указанием их диаметра в мм.
Облачность - указаны через наклонную черту общая и нижняя облачность в баллах и высота нижней границы облаков в метрах; квадратными скобками обозначены формы облаков: Ci - перистые, Cs - перисто-слоистые, Cc - перисто-кучевые, Ac - высококучевые, As - высокослоистые, Sc - слоисто-кучевые, Ns - слоисто-дождевые, Cu - кучевые, Cb - кучево-дождевые. Подробнее классификацию облаков см. в Атласе облаков (PDF).
T - Температура воздуха - температура, измеренная на высоте 2 м над землей.
Td - Температура точки росы - температура, при понижении до которой содержащийся в воздухе водяной пар достигнет насыщения.
f - Относительная влажность воздуха - влажноcть воздуха, измеренная на высоте 2 м над землей.
Te - Эффективная температура - температура, которую ощущает одетый по сезону человек в тени. Характеристика душности погоды. При расчете учитывается влияние влажности воздуха и скорости ветра на теплоощущения человека.
Tes - Эффективная температура на солнце - температура, которую ощущает человек, с поправкой на солнечный нагрев. Характеристика знойности погоды. Зависит от высоты солнца над горизонтом, облачности и скорости ветра. Ночью, в пасмурную погоду, а также при ветре 12 м/с и более поправка равна нулю.
P - Атмосферное давление - приведенное к уровню моря атмосферное давление.
Po - Атмосферное давление - измеренное на уровне метеостанции атмосферное давление.
Tmin - Минимальная температура - минимум температуры воздуха на высоте 2 м над землей.
Tmax - Максимальная температура - максимум температуры воздуха на высоте 2 м над землей.
R - Количество осадков - Количество выпавших осадков, мм. При наведении курсора мыши на число - период времени, за который выпало указанное количество осадков.
S - Снежный покров - Высота снежного покрова, см. При наведении курсора мыши на число - состояние снежного покрова и степень покрытия местности в баллах.